/EX
1
0
The following satellites have been and added to this week's AMSAT-NA TLE
Distribution:
BY70-3 - NORAD Cat ID 46839 - BY70-3 is not transmitting on it's coordinated
frequency of 437.443 MHz. BY70-3 is transmitting on an uncoordinated
frequency of 437.600 MHZ.
Thanks to Nico Janssen, PA0DLO, for verifying the NORAD Cat ID's and
transmitting frequencies for the above satellite.
Neutron-1 - NORAD Cat ID 46923.
******************
The following satellites have decayed from orbit and have been removed from
this week's AMSAT-NA TLE Distribution:
UiTMSat 1 - NORAD Cat ID 43589 (Decayed on November 20, 2020 per
Space-Track).
Maya 1 - NORAD Cat ID 43590 (Decayed on November 19, 2020 per
Space-Track).
1
0
The following satellites have been and added to this week's AMSAT-NA TLE
Distribution:
SALSAT - NORAD Cat ID 46495.
Bobcat-1 - NORAD Cat ID 46921.
SPOC - NORAD Cat ID 46922.
Thanks to Nico Janssen, PA0DLO, for verfying the NORAD Cat ID's for the
above satellites.
The following satellite has decayed from orbit and has been removed from
this week's AMSAT-NA TLE Distribution:
BHUTAN 1 - NORAD Cat ID 43591 (Decayed on November 18, 2020 per Space-Track)
1
0
SB KEPS @ AMSAT $ORB20324.N
2Line Orbital Elements 20324.AMSAT
HR AMSAT ORBITAL ELEMENTS FOR AMATEUR SATELLITES IN NASA FORMAT
FROM WA5QGD FORT WORTH,TX November 19, 2020
BID: ORB20324.N
DECODE 2-LINE ELSETS WITH THE FOLLOWING KEY:
1 AAAAAU 00 0 0 BBBBB.BBBBBBBB .CCCCCCCC 00000-0 00000-0 0 DDDZ
2 AAAAA EEE.EEEE FFF.FFFF GGGGGGG HHH.HHHH III.IIII JJ.JJJJJJJJKKKKKZ
KEY: A-CATALOGNUM B-EPOCHTIME C-DECAY D-ELSETNUM E-INCLINATION F-RAAN
G-ECCENTRICITY H-ARGPERIGEE I-MNANOM J-MNMOTION K-ORBITNUM Z-CHECKSUM
TO ALL RADIO AMATEURS BT
AO-07
1 07530U 74089B 20324.85403786 -.00000039 00000-0 37031-4 0 9996
2 07530 101.8239 293.8460 0012515 64.9562 3.3984 12.53646085105709
UO-11
1 14781U 84021B 20324.25370263 .00000135 00000-0 22608-4 0 9996
2 14781 097.5899 328.5255 0009725 058.2632 301.9529 14.83211567954778
LO-19
1 20442U 90005G 20324.38516359 .00000024 00000-0 25291-4 0 9996
2 20442 98.7120 272.2878 0012759 61.4397 298.8069 14.32966898610804
HUBBLE
1 20580U 90037B 20324.85606596 .00000783 00000-0 36655-4 0 9997
2 20580 28.4722 11.7605 0002802 332.3421 27.7007 15.09479421479557
MET-2/21
1 22782U 93055A 20324.20360348 .00000023 00000-0 72886-5 0 9991
2 22782 082.5469 110.7825 0022882 158.4497 014.5884 13.83830122374444
AO-27
1 22825U 93061C 20324.27551427 -.00000012 00000-0 13315-4 0 9993
2 22825 098.9256 330.6464 0007443 288.9953 071.0421 14.30097858415941
IO-26
1 22826U 93061D 20324.01573081 -.00000014 00000-0 12768-4 0 9999
2 22826 98.9197 330.3100 0007925 275.9047 84.1231 14.30434784416392
FO-29
1 24278U 96046B 20324.22758885 -.00000042 00000-0 -44097-5 0 9991
2 24278 098.5889 053.8418 0349840 334.2880 024.1221 13.53100445197811
NOAA-15
1 25338U 98030A 20324.78306194 .00000023 00000-0 28350-4 0 9997
2 25338 98.7045 348.9512 0010675 165.6964 194.4519 14.25999257171368
GO-32
1 25397U 98043D 20324.13091951 .00000003 00000-0 20868-4 0 9991
2 25397 098.7452 264.5534 0001297 022.0075 338.1159 14.23694802161565
ISS
1 25544U 98067A 20324.95087704 .00006279 00000-0 12190-3 0 9991
2 25544 51.6435 297.7320 0001726 50.7438 62.3357 15.49027989256169
NO-44
1 26931U 01043C 20324.79389065 -.00000026 00000-0 21735-4 0 9998
2 26931 67.0505 101.5148 0006998 275.1152 84.9150 14.30595057999363
SO-50
1 27607U 02058C 20324.08689960 .00000037 00000-0 25675-4 0 9993
2 27607 64.5556 261.5833 0031274 119.2408 241.1828 14.75679085963674
CO-55
1 27844U 03031E 20324.27407834 .00000057 00000-0 45332-4 0 9991
2 27844 98.6823 329.6767 0009342 332.9781 27.0909 14.22268779902145
CO-57
1 27848U 03031J 20324.27551875 .00000037 00000-0 36849-4 0 9991
2 27848 98.6887 330.2451 0009437 346.4069 13.6853 14.21851590901978
RS-22
1 27939U 03042A 20324.70628553 .00000228 00000-0 49487-4 0 9994
2 27939 98.1131 97.6735 0012167 218.0138 142.0216 14.66907309916773
NOAA-18
1 28654U 05018A 20324.78505149 .00000081 00000-0 68196-4 0 9992
2 28654 99.0248 22.5186 0014831 150.7455 209.4549 14.12556721798930
CO-58
1 28895U 05043F 20324.37797677 .00000188 00000-0 44961-4 0 9993
2 28895 98.0318 96.6018 0017510 149.0143 211.2096 14.63825141803501
Falconsat-3
1 30776U 07006E 20324.41899938 .00004872 00000-0 12550-3 0 9995
2 30776 35.4358 8.0291 0002496 170.9427 189.1345 15.38680079760713
CO-65
1 32785U 08021C 20324.88538673 .00000336 00000-0 41752-4 0 9990
2 32785 97.5889 306.1958 0012580 344.7763 15.3074 14.88557361681064
AAUSAT2
1 32788U 08021F 20323.98274709 .00000321 00000-0 34085-4 0 9995
2 32788 97.4959 321.6626 0010221 255.5840 104.4247 14.95233160682501
DO-64
1 32789U 08021G 20324.08405090 .00001456 00000-0 98066-4 0 9996
2 32789 97.4017 1.3716 0013003 140.1348 220.0838 15.08125586685211
CO-66
1 32791U 08021J 20323.94521660 .00000417 00000-0 47336-4 0 9995
2 32791 97.5529 311.3764 0012109 312.6104 47.4093 14.91169861681486
RS-30
1 32953U 08025A 20324.64949325 .00000028 00000-0 12906-3 0 9991
2 32953 82.5034 181.4063 0019881 74.3313 285.9959 12.43098912566910
PRISM
1 33493U 09002B 20324.84708362 .00000566 00000-0 54444-4 0 9994
2 33493 98.1607 271.7178 0013949 261.3824 98.5816 14.97241732642964
NOAA-19
1 33591U 09005A 20324.80032754 .00000006 00000-0 28516-4 0 9997
2 33591 99.1950 334.1913 0014025 4.3846 355.7445 14.12439401607327
TISAT-1
1 36799U 10035E 20324.75321106 .00000402 00000-0 46245-4 0 9990
2 36799 98.2021 141.1221 0012267 175.3683 184.7650 14.91487752562272
JUGNU
1 37839U 11058B 20324.60013877 .00000314 00000-0 25448-4 0 9993
2 37839 19.9621 61.8795 0018861 299.3426 89.2749 14.12695184470860
SRMSAT
1 37841U 11058D 20324.14790128 .00000264 00000-0 -80301-7 0 9993
2 37841 19.9709 132.1514 0011858 143.1422 13.0713 14.10678187470130
AO-71
1 37854U 11061E 20324.41074286 .00001608 00000-0 87400-4 0 9997
2 37854 101.7147 135.7940 0157077 320.8559 38.1374 15.07711735495278
HRBE
1 37855U 11061F 20324.45670628 .00001324 00000-0 72274-4 0 9992
2 37855 101.7277 132.9410 0169625 334.7869 24.5133 15.06743713495018
HORYU-2
1 38340U 12025D 20324.73565526 .00000229 00000-0 41262-4 0 9990
2 38340 98.2619 21.8801 0010215 264.2677 95.7367 14.75921240457860
RS-40
1 38735U 12041C 20324.20363783 .00000002 00000-0 -57489-4 0 9997
2 38735 82.4742 264.1556 0016326 181.2649 178.8392 12.42580362377078
BEESAT-3
1 39135U 13015F 20323.96200137 .00001525 00000-0 82773-4 0 9993
2 39135 64.8652 162.3009 0023392 216.4134 143.5403 15.18536393419069
BEESAT-2
1 39136U 13015G 20323.93947752 .00001310 00000-0 73244-4 0 9997
2 39136 64.8752 167.9206 0033956 264.7229 95.0022 15.17944165418953
ZACUBE-1
1 39417U 13066B 20324.72827893 .00000284 00000-0 41641-4 0 9991
2 39417 97.5753 314.1966 0059937 127.8483 232.8175 14.81356151378021
TRITON-1
1 39427U 13066M 20324.81285983 .00000306 00000-0 56817-4 0 9996
2 39427 97.7477 277.2788 0112424 301.6481 57.3797 14.68091866374647
GOMX-1
1 39430U 13066Q 20324.89031222 .00000363 00000-0 74088-4 0 9996
2 39430 97.8024 254.1033 0152078 55.1897 306.3512 14.59470185372474
LO-74
1 39440U 13066AA 20323.91485959 .00000231 00000-0 39043-4 0 9995
2 39440 097.6496 298.0293 0079458 197.8008 162.0417 14.76092897375360
AO-73
1 39444U 13066AE 20323.96085343 .00000377 00000-0 52105-4 0 9992
2 39444 97.5678 315.7766 0059110 121.9349 238.7632 14.82225970376847
SPROUT
1 39770U 14029E 20324.76914126 .00001022 00000-0 11742-3 0 9992
2 39770 97.9056 70.4842 0009042 170.1031 190.0347 14.87979948352153
